Chicago Executive, IL

12:47 AM CDT on July 19, 2018 (GMT -0500)
Chicago Executive

Weather History for KPWK - January, 2018

Change the Weather History Date:

Saturday, January 13, 2018

  Actual Average Record
Temperature  
Mean Temperature 11 °F 23 °F  
Max Temperature 17 °F 31 °F 49 °F (2006)
Min Temperature 5 °F 16 °F -3 °F (1997)
Degree Days  
Heating Degree Days 54 42  
Month to date heating degree days 611 535  
Since 1 July heating degree days 2850 2952  
Cooling Degree Days 0 0  
Month to date cooling degree days 0 0  
Year to date cooling degree days 0 0  
Moisture  
Dew Point -2 °F    
Average Humidity 58    
Maximum Humidity 70    
Minimum Humidity 39    
Precipitation  
Precipitation 0.00 in 0.05 in 0.45 in (2005)
Month to date precipitation 0.20 0.68  
Year to date precipitation 0.20 0.68  
Sea Level Pressure  
Sea Level Pressure 30.62 in    
Wind  
Wind Speed 8 mph (NW)    
Max Wind Speed 18 mph    
Max Gust Speed 25 mph    
Visibility 10 miles    
Events      
T = Trace of Precipitation, MM = Missing Value Source: NWS Daily Summary

Daily Weather History Graph

Daily Weather History Graph

Search for Another Location

Airport or City:

Astronomy

Jan. 13, 2018 Rise Set
Actual Time 7:18 AM CST 4:42 PM CST
Civil Twilight 6:47 AM CST 5:13 PM CST
Nautical Twilight 6:12 AM CST 5:48 PM CST
Astronomical Twilight 5:39 AM CST 6:22 PM CST
Moon 4:19 AM CST (1/13) 2:18 PM CST (1/13)
Length of Visible Light 10h 26m
Length of Day
9h 24m
Waning Crescent, 10% of the Moon is Illuminated
Jan 13
Waning Crescent
Jan 16
New
Jan 24
First Quarter
Jan 31
Full
Feb 7
Last Quarter

Hourly Weather History & Observations

Time (CST) Temp. Windchill Dew Point Humidity Pressure Visibility Wind Dir Wind Speed Gust Speed Precip Events Conditions
12:52 AM 12.9 °F -2.2 °F 1.0 °F 59% 30.49 in 10.0 mi NNW 13.8 mph - N/A   Overcast
1:52 AM 12.0 °F -2.0 °F 1.0 °F 61% 30.51 in 10.0 mi NNW 11.5 mph 25.3 mph N/A   Mostly Cloudy
2:52 AM 10.0 °F -5.9 °F 1.0 °F 67% 30.53 in 10.0 mi NNW 13.8 mph 24.2 mph N/A   Clear
3:52 AM 9.0 °F -5.9 °F -0.0 °F 67% 30.54 in 10.0 mi NW 11.5 mph - N/A   Clear
4:52 AM 8.1 °F -7.7 °F -0.9 °F 67% 30.55 in 10.0 mi NW 12.7 mph - N/A   Clear
5:52 AM 7.0 °F -8.3 °F -0.9 °F 70% 30.56 in 10.0 mi NNW 11.5 mph - N/A   Clear
6:52 AM 6.1 °F -9.5 °F -2.0 °F 69% 30.59 in 10.0 mi NNW 11.5 mph - N/A   Clear
7:52 AM 6.1 °F -7.8 °F -2.0 °F 69% 30.62 in 10.0 mi NW 9.2 mph - N/A   Clear
8:52 AM 7.0 °F -8.3 °F -2.9 °F 64% 30.63 in 10.0 mi NW 11.5 mph - N/A   Clear
9:52 AM 9.0 °F -3.2 °F -2.9 °F 59% 30.65 in 10.0 mi NNW 8.1 mph - N/A   Clear
10:52 AM 12.0 °F 1.5 °F -5.1 °F 46% 30.64 in 10.0 mi NNW 6.9 mph - N/A   Clear
11:52 AM 12.9 °F -0.2 °F -5.1 °F 45% 30.64 in 10.0 mi NNW 10.4 mph - N/A   Clear
12:52 PM 14.0 °F 5.1 °F -5.1 °F 43% 30.63 in 10.0 mi NNW 5.8 mph - N/A   Clear
1:52 PM 16.0 °F 5.3 °F -4.0 °F 41% 30.62 in 10.0 mi NW 8.1 mph - N/A   Clear
2:52 PM 16.0 °F 8.8 °F -5.1 °F 39% 30.63 in 10.0 mi West 4.6 mph - N/A   Clear
3:52 PM 16.0 °F 5.3 °F -4.0 °F 41% 30.65 in 10.0 mi WNW 8.1 mph - N/A   Clear
4:52 PM 12.9 °F 1.6 °F -4.0 °F 47% 30.66 in 10.0 mi NW 8.1 mph - N/A   Clear
5:52 PM 12.0 °F 2.7 °F -2.9 °F 51% 30.67 in 10.0 mi NW 5.8 mph - N/A   Clear
6:52 PM 10.9 °F 1.4 °F -2.0 °F 56% 30.68 in 10.0 mi NW 5.8 mph - N/A   Clear
7:52 PM 10.0 °F 1.8 °F -2.0 °F 58% 30.69 in 10.0 mi NW 4.6 mph - N/A   Clear
8:52 PM 9.0 °F 2.4 °F -2.0 °F 61% 30.69 in 10.0 mi NNW 3.5 mph - N/A   Clear
9:52 PM 8.1 °F 1.4 °F -0.9 °F 67% 30.70 in 10.0 mi NNW 3.5 mph - N/A   Clear
10:52 PM 8.1 °F - -0.0 °F 70% 30.70 in 10.0 mi Calm Calm - N/A   Clear
11:52 PM 8.1 °F 1.4 °F -0.0 °F 70% 30.69 in 10.0 mi West 3.5 mph - N/A   Clear